Orbital Elements at Epoch 2459200.5 (2020-Dec-17.0) TDB
Reference: JPL 42 (heliocentric ecliptic J2000)
Element | Value | Uncertainty (1-sigma) | Units |
e | .1592876067257917 | 3.1779e-08 | |
a | 3.139486505601701 | 1.3176e-08 | au |
q | 2.639405213776487 | 1.026e-07 | au |
i | 2.069502581425571 | 3.2665e-06 | deg |
node | 63.23457491796459 | 0.00010401 | deg |
peri | 254.7511116743975 | 0.00010457 | deg |
M | 274.5863239083757 | 1.277e-05 | deg |
tp | 2459682.571293578226 (2022-Apr-13.07129358) | 7.3576e-05 | TDB |
period | 2031.825272360327 5.56 | 1.2791e-05 3.502e-08 | d yr |
n | .1771805897373231 | 1.1154e-09 | deg/d |
Q | 3.639567797426915 | 1.5275e-08 | au |
|
| | Orbit Determination Parameters
Additional Information
|